Time,TemperatureF,DewpointF,PressureIn,WindDirection,WindDirectionDegrees,WindSpeedMPH,WindSpeedGustMPH,Humidity,HourlyPrecipIn,Conditions,Clouds,dailyrainin,SoftwareType,DateUTC
2013-06-24 00:00:00,76.5,53.0,25.59,NNE,22,10.7,14.2,43,0.00,,,0.00,Rainwise IP-100,2013-06-24 06:00:00,
2013-06-24 00:05:00,74.2,55.0,25.59,ENE,67,13.1,16.8,51,0.00,,,0.00,Rainwise IP-100,2013-06-24 06:05:00,
2013-06-24 00:10:00,72.0,54.5,25.59,NNE,22,12.6,22.9,54,0.00,,,0.00,Rainwise IP-100,2013-06-24 06:10:00,
2013-06-24 00:15:00,70.0,53.0,25.59,NNE,22,18.4,23.8,54,0.00,,,0.00,Rainwise IP-100,2013-06-24 06:15:00,
2013-06-24 00:20:00,69.0,52.0,25.59,NNE,22,15.4,29.1,55,0.00,,,0.00,Rainwise IP-100,2013-06-24 06:20:00,
2013-06-24 00:25:00,68.3,52.0,25.59,NNE,22,19.1,25.2,55,0.00,,,0.00,Rainwise IP-100,2013-06-24 06:25:00,
2013-06-24 00:30:00,67.6,51.0,25.59,NNE,22,15.2,23.3,56,0.00,,,0.00,Rainwise IP-100,2013-06-24 06:30:00,
2013-06-24 00:35:00,66.9,51.0,25.60,NE,45,8.2,22.9,57,0.00,,,0.00,Rainwise IP-100,2013-06-24 06:35:00,
2013-06-24 00:40:00,66.7,51.0,25.59,NNE,22,20.3,21.2,58,0.00,,,0.00,Rainwise IP-100,2013-06-24 06:40:00,
2013-06-24 00:45:00,66.6,52.0,25.59,NNE,22,22.2,25.9,59,0.00,,,0.00,Rainwise IP-100,2013-06-24 06:45:00,
2013-06-24 00:50:00,66.4,51.0,25.59,NNE,22,16.8,25.2,59,0.00,,,0.00,Rainwise IP-100,2013-06-24 06:50:00,
2013-06-24 00:55:00,66.2,51.0,25.59,NE,45,14.7,24.9,59,0.00,,,0.00,Rainwise IP-100,2013-06-24 06:55:00,
2013-06-24 01:00:00,66.1,51.0,25.59,NNE,22,17.7,25.6,60,0.00,,,0.00,Rainwise IP-100,2013-06-24 07:00:00,
2013-06-24 01:05:00,66.1,51.0,25.58,NNE,22,21.9,28.4,59,0.00,,,0.00,Rainwise IP-100,2013-06-24 07:05:00,
2013-06-24 01:10:00,66.1,50.5,25.59,NNE,22,23.6,24.5,58,0.00,,,0.00,Rainwise IP-100,2013-06-24 07:10:00,
2013-06-24 01:15:00,66.1,50.0,25.59,NNE,22,29.6,29.8,57,0.00,,,0.00,Rainwise IP-100,2013-06-24 07:15:00,
2013-06-24 01:20:00,65.8,50.0,25.60,NNE,22,18.9,29.6,57,0.00,,,0.00,Rainwise IP-100,2013-06-24 07:20:00,
2013-06-24 01:25:00,65.4,50.0,25.59,NNE,22,20.1,27.0,57,0.00,,,0.00,Rainwise IP-100,2013-06-24 07:25:00,
2013-06-24 01:30:00,65.3,50.5,25.60,NNE,22,7.5,29.6,58,0.00,,,0.00,Rainwise IP-100,2013-06-24 07:30:00,
2013-06-24 01:35:00,65.0,50.0,25.60,ENE,67,20.1,22.4,58,0.00,,,0.00,Rainwise IP-100,2013-06-24 07:35:00,
2013-06-24 01:40:00,64.6,50.0,25.58,NNE,22,27.7,34.5,59,0.00,,,0.00,Rainwise IP-100,2013-06-24 07:40:00,
2013-06-24 01:45:00,64.2,50.0,25.59,NNE,22,23.1,32.6,60,0.00,,,0.00,Rainwise IP-100,2013-06-24 07:45:00,
2013-06-24 01:50:00,63.9,50.5,25.58,NNE,22,26.8,32.2,61,0.00,,,0.00,Rainwise IP-100,2013-06-24 07:50:00,
2013-06-24 01:55:00,63.7,50.5,25.59,NNE,22,27.0,34.0,62,0.00,,,0.00,Rainwise IP-100,2013-06-24 07:55:00,
2013-06-24 02:00:00,63.5,50.5,25.60,NNE,22,18.2,31.9,62,0.00,,,0.00,Rainwise IP-100,2013-06-24 08:00:00,
2013-06-24 02:05:00,63.4,50.5,25.59,ENE,67,21.0,32.6,62,0.00,,,0.00,Rainwise IP-100,2013-06-24 08:05:00,
2013-06-24 02:10:00,63.4,50.5,25.59,NNE,22,24.2,32.9,63,0.00,,,0.00,Rainwise IP-100,2013-06-24 08:10:00,
2013-06-24 02:15:00,63.5,50.5,25.59,NNE,22,14.9,33.3,63,0.00,,,0.00,Rainwise IP-100,2013-06-24 08:15:00,
2013-06-24 02:21:00,63.6,50.5,25.58,NNE,22,26.1,35.9,62,0.00,,,0.00,Rainwise IP-100,2013-06-24 08:21:00,
2013-06-24 02:26:00,63.7,50.5,25.59,ESE,112,10.3,32.2,62,0.00,,,0.00,Rainwise IP-100,2013-06-24 08:26:00,
2013-06-24 02:31:00,63.7,50.5,25.58,NNE,22,17.7,33.8,62,0.00,,,0.00,Rainwise IP-100,2013-06-24 08:31:00,
2013-06-24 02:36:00,63.6,50.5,25.59,ENE,67,13.3,33.6,63,0.00,,,0.00,Rainwise IP-100,2013-06-24 08:36:00,
2013-06-24 02:41:00,63.4,50.5,25.58,NNE,22,19.1,26.1,63,0.00,,,0.00,Rainwise IP-100,2013-06-24 08:41:00,
2013-06-24 02:46:00,63.4,50.5,25.58,NE,45,8.4,26.1,63,0.00,,,0.00,Rainwise IP-100,2013-06-24 08:46:00,
2013-06-24 02:51:00,63.5,50.5,25.59,NNE,22,14.9,21.2,62,0.00,,,0.00,Rainwise IP-100,2013-06-24 08:51:00,
2013-06-24 02:56:00,63.5,50.0,25.58,East,90,12.1,18.7,61,0.00,,,0.00,Rainwise IP-100,2013-06-24 08:56:00,
2013-06-24 03:01:00,63.5,50.0,25.58,ENE,67,19.4,20.5,61,0.00,,,0.00,Rainwise IP-100,2013-06-24 09:01:00,
2013-06-24 03:06:00,63.6,49.0,25.59,ENE,67,14.0,22.6,60,0.00,,,0.00,Rainwise IP-100,2013-06-24 09:06:00,
2013-06-24 03:11:00,63.7,49.0,25.60,ENE,67,7.9,19.6,59,0.00,,,0.00,Rainwise IP-100,2013-06-24 09:11:00,
2013-06-24 03:16:00,63.7,49.0,25.60,East,90,3.5,16.1,59,0.00,,,0.00,Rainwise IP-100,2013-06-24 09:16:00,
2013-06-24 03:21:00,63.6,49.0,25.60,ENE,67,7.9,19.4,59,0.00,,,0.00,Rainwise IP-100,2013-06-24 09:21:00,
2013-06-24 03:26:00,63.6,49.0,25.59,ENE,67,8.4,24.2,59,0.00,,,0.00,Rainwise IP-100,2013-06-24 09:26:00,
2013-06-24 03:31:00,63.5,49.0,25.60,ENE,67,11.0,18.9,59,0.00,,,0.00,Rainwise IP-100,2013-06-24 09:31:00,
2013-06-24 03:36:00,63.5,49.0,25.59,NNE,22,11.2,19.1,59,0.00,,,0.00,Rainwise IP-100,2013-06-24 09:36:00,
2013-06-24 03:41:00,63.6,48.0,25.61,NNE,22,14.5,21.7,58,0.00,,,0.00,Rainwise IP-100,2013-06-24 09:41:00,
2013-06-24 03:46:00,63.7,48.0,25.62,NNE,22,13.5,20.3,58,0.00,,,0.00,Rainwise IP-100,2013-06-24 09:46:00,
2013-06-24 03:51:00,63.6,48.0,25.61,NNE,22,10.3,16.8,58,0.00,,,0.00,Rainwise IP-100,2013-06-24 09:51:00,
2013-06-24 03:56:00,63.4,48.0,25.61,ENE,67,10.7,18.4,58,0.00,,,0.00,Rainwise IP-100,2013-06-24 09:56:00,
2013-06-24 04:01:00,63.4,48.0,25.60,ENE,67,5.6,15.4,58,0.00,,,0.00,Rainwise IP-100,2013-06-24 10:01:00,
2013-06-24 04:06:00,63.3,48.0,25.60,NNE,22,6.5,15.2,58,0.00,,,0.00,Rainwise IP-100,2013-06-24 10:06:00,
2013-06-24 04:11:00,63.1,48.0,25.60,NE,45,5.8,17.5,58,0.00,,,0.00,Rainwise IP-100,2013-06-24 10:11:00,
2013-06-24 04:16:00,63.0,48.0,25.60,NE,45,7.7,18.9,59,0.00,,,0.00,Rainwise IP-100,2013-06-24 10:16:00,
2013-06-24 04:21:00,62.9,48.0,25.60,NE,45,14.0,18.0,59,0.00,,,0.00,Rainwise IP-100,2013-06-24 10:21:00,
2013-06-24 04:26:00,62.7,48.0,25.61,NE,45,12.8,18.7,60,0.00,,,0.00,Rainwise IP-100,2013-06-24 10:26:00,
2013-06-24 04:31:00,62.5,48.0,25.61,NE,45,13.3,18.4,60,0.00,,,0.00,Rainwise IP-100,2013-06-24 10:31:00,
2013-06-24 04:36:00,62.6,48.0,25.60,ENE,67,6.1,16.6,60,0.00,,,0.00,Rainwise IP-100,2013-06-24 10:36:00,
2013-06-24 04:41:00,62.6,48.0,25.61,ENE,67,7.5,18.0,60,0.00,,,0.00,Rainwise IP-100,2013-06-24 10:41:00,
2013-06-24 04:46:00,62.6,48.0,25.61,ENE,67,10.5,18.0,60,0.00,,,0.00,Rainwise IP-100,2013-06-24 10:46:00,
2013-06-24 04:51:00,62.5,48.0,25.60,ENE,67,8.4,18.0,60,0.00,,,0.00,Rainwise IP-100,2013-06-24 10:51:00,
2013-06-24 04:56:00,62.6,48.0,25.61,NE,45,4.4,17.0,60,0.00,,,0.00,Rainwise IP-100,2013-06-24 10:56:00,
2013-06-24 05:01:00,62.8,49.0,25.61,ENE,67,17.3,21.2,60,0.00,,,0.00,Rainwise IP-100,2013-06-24 11:01:00,
2013-06-24 05:06:00,62.9,48.0,25.60,ENE,67,8.4,17.3,59,0.00,,,0.00,Rainwise IP-100,2013-06-24 11:06:00,
2013-06-24 05:11:00,62.8,48.0,25.60,NE,45,12.8,17.3,59,0.00,,,0.00,Rainwise IP-100,2013-06-24 11:11:00,
2013-06-24 05:16:00,62.8,48.0,25.60,ENE,67,15.6,20.1,59,0.00,,,0.00,Rainwise IP-100,2013-06-24 11:16:00,
2013-06-24 05:21:00,62.8,48.0,25.61,ENE,67,9.3,21.9,59,0.00,,,0.00,Rainwise IP-100,2013-06-24 11:21:00,
2013-06-24 05:26:00,62.7,48.0,25.61,ENE,67,11.9,17.7,59,0.00,,,0.00,Rainwise IP-100,2013-06-24 11:26:00,
2013-06-24 05:31:00,62.7,48.0,25.61,NE,45,9.6,16.6,59,0.00,,,0.00,Rainwise IP-100,2013-06-24 11:31:00,
2013-06-24 05:36:00,62.6,48.0,25.60,ENE,67,21.0,21.0,59,0.00,,,0.00,Rainwise IP-100,2013-06-24 11:36:00,
2013-06-24 05:41:00,62.6,48.0,25.61,ENE,67,14.7,22.4,60,0.00,,,0.00,Rainwise IP-100,2013-06-24 11:41:00,
2013-06-24 05:46:00,62.7,48.0,25.61,ENE,67,15.2,18.2,60,0.00,,,0.00,Rainwise IP-100,2013-06-24 11:46:00,
2013-06-24 05:51:00,62.8,49.0,25.61,ENE,67,13.8,20.3,60,0.00,,,0.00,Rainwise IP-100,2013-06-24 11:51:00,
2013-06-24 05:56:00,62.9,49.0,25.61,ENE,67,12.6,16.6,60,0.00,,,0.00,Rainwise IP-100,2013-06-24 11:56:00,
2013-06-24 06:01:00,63.1,48.0,25.60,ENE,67,13.8,23.1,59,0.00,,,0.00,Rainwise IP-100,2013-06-24 12:01:00,
2013-06-24 06:06:00,63.4,49.0,25.61,ENE,67,17.0,20.5,59,0.00,,,0.00,Rainwise IP-100,2013-06-24 12:06:00,
2013-06-24 06:11:00,63.8,49.0,25.60,ENE,67,18.0,23.6,58,0.00,,,0.00,Rainwise IP-100,2013-06-24 12:11:00,
2013-06-24 06:16:00,64.2,48.0,25.61,ENE,67,15.9,18.9,57,0.00,,,0.00,Rainwise IP-100,2013-06-24 12:16:00,
2013-06-24 06:21:00,64.6,48.0,25.61,ENE,67,13.8,18.7,56,0.00,,,0.00,Rainwise IP-100,2013-06-24 12:21:00,
2013-06-24 06:26:00,65.1,48.0,25.60,ENE,67,17.0,21.2,55,0.00,,,0.00,Rainwise IP-100,2013-06-24 12:26:00,
2013-06-24 06:31:00,65.4,48.0,25.60,ENE,67,11.2,19.6,54,0.00,,,0.00,Rainwise IP-100,2013-06-24 12:31:00,
2013-06-24 06:36:00,65.6,47.5,25.60,East,90,13.8,21.2,53,0.00,,,0.00,Rainwise IP-100,2013-06-24 12:36:00,
2013-06-24 06:41:00,65.8,48.0,25.60,ENE,67,11.4,19.8,53,0.00,,,0.00,Rainwise IP-100,2013-06-24 12:41:00,
2013-06-24 06:46:00,65.9,49.0,25.61,ENE,67,10.3,18.4,54,0.00,,,0.00,Rainwise IP-100,2013-06-24 12:46:00,
2013-06-24 06:51:00,66.2,49.0,25.61,ENE,67,12.4,19.6,54,0.00,,,0.00,Rainwise IP-100,2013-06-24 12:51:00,
2013-06-24 06:56:00,66.3,49.0,25.61,East,90,15.4,24.2,54,0.00,,,0.00,Rainwise IP-100,2013-06-24 12:56:00,
2013-06-24 07:01:00,66.5,49.0,25.61,ENE,67,10.0,21.5,53,0.00,,,0.00,Rainwise IP-100,2013-06-24 13:01:00,
2013-06-24 07:06:00,66.8,49.0,25.61,ENE,67,16.8,21.5,53,0.00,,,0.00,Rainwise IP-100,2013-06-24 13:06:00,
2013-06-24 07:11:00,67.2,50.0,25.61,ENE,67,15.6,20.1,53,0.00,,,0.00,Rainwise IP-100,2013-06-24 13:11:00,
2013-06-24 07:16:00,67.7,49.0,25.61,ENE,67,12.8,17.5,52,0.00,,,0.00,Rainwise IP-100,2013-06-24 13:16:00,
2013-06-24 07:21:00,68.2,50.0,25.60,ENE,67,7.5,16.3,52,0.00,,,0.00,Rainwise IP-100,2013-06-24 13:21:00,
2013-06-24 07:26:00,68.4,50.0,25.61,East,90,11.7,20.5,51,0.00,,,0.00,Rainwise IP-100,2013-06-24 13:26:00,
2013-06-24 07:31:00,68.5,50.0,25.61,East,90,11.4,18.9,51,0.00,,,0.00,Rainwise IP-100,2013-06-24 13:31:00,
2013-06-24 07:36:00,68.6,50.0,25.61,East,90,8.6,20.5,51,0.00,,,0.00,Rainwise IP-100,2013-06-24 13:36:00,
2013-06-24 07:41:00,68.9,50.0,25.61,East,90,18.2,19.1,51,0.00,,,0.00,Rainwise IP-100,2013-06-24 13:41:00,
2013-06-24 07:46:00,69.0,50.0,25.61,East,90,7.2,20.3,50,0.00,,,0.00,Rainwise IP-100,2013-06-24 13:46:00,
2013-06-24 07:51:00,69.4,50.0,25.60,East,90,8.6,19.6,50,0.00,,,0.00,Rainwise IP-100,2013-06-24 13:51:00,
2013-06-24 07:56:00,69.9,50.0,25.60,East,90,6.5,18.7,49,0.00,,,0.00,Rainwise IP-100,2013-06-24 13:56:00,
2013-06-24 08:01:00,70.2,50.0,25.60,East,90,9.8,23.6,48,0.00,,,0.00,Rainwise IP-100,2013-06-24 14:01:00,
2013-06-24 08:06:00,70.5,49.0,25.60,ESE,112,5.4,15.2,47,0.00,,,0.00,Rainwise IP-100,2013-06-24 14:06:00,
2013-06-24 08:11:00,71.2,50.0,25.60,ESE,112,12.8,16.8,47,0.00,,,0.00,Rainwise IP-100,2013-06-24 14:11:00,
2013-06-24 08:16:00,71.9,50.0,25.60,East,90,4.4,16.8,45,0.00,,,0.00,Rainwise IP-100,2013-06-24 14:16:00,
2013-06-24 08:21:00,72.4,49.0,25.61,SE,135,2.1,21.7,44,0.00,,,0.00,Rainwise IP-100,2013-06-24 14:21:00,
2013-06-24 08:26:00,72.5,50.0,25.61,East,90,14.0,23.6,44,0.00,,,0.00,Rainwise IP-100,2013-06-24 14:26:00,
2013-06-24 08:31:00,72.0,49.0,25.61,ESE,112,13.5,22.4,44,0.00,,,0.00,Rainwise IP-100,2013-06-24 14:31:00,
2013-06-24 08:36:00,72.1,50.0,25.60,ENE,67,7.9,15.6,45,0.00,,,0.00,Rainwise IP-100,2013-06-24 14:36:00,
2013-06-24 08:41:00,72.6,50.0,25.60,ESE,112,7.0,18.0,45,0.00,,,0.00,Rainwise IP-100,2013-06-24 14:41:00,
2013-06-24 08:46:00,73.2,50.5,25.60,East,90,13.3,18.7,45,0.00,,,0.00,Rainwise IP-100,2013-06-24 14:46:00,
2013-06-24 08:51:00,73.4,50.5,25.60,ENE,67,14.7,21.7,45,0.00,,,0.00,Rainwise IP-100,2013-06-24 14:51:00,
2013-06-24 08:56:00,73.4,50.5,25.60,SE,135,1.9,20.8,45,0.00,,,0.00,Rainwise IP-100,2013-06-24 14:56:00,
2013-06-24 09:01:00,73.6,52.0,25.59,ESE,112,7.0,17.7,46,0.00,,,0.00,Rainwise IP-100,2013-06-24 15:01:00,
2013-06-24 09:06:00,73.3,53.0,25.60,ENE,67,6.8,17.7,48,0.00,,,0.00,Rainwise IP-100,2013-06-24 15:06:00,
2013-06-24 09:11:00,73.0,53.5,25.61,ENE,67,10.0,15.6,50,0.00,,,0.00,Rainwise IP-100,2013-06-24 15:11:00,
2013-06-24 09:16:00,73.1,54.0,25.61,SE,135,11.0,15.6,51,0.00,,,0.00,Rainwise IP-100,2013-06-24 15:16:00,
2013-06-24 09:21:00,73.0,54.5,25.61,SSE,157,7.2,16.1,52,0.00,,,0.00,Rainwise IP-100,2013-06-24 15:21:00,
2013-06-24 09:26:00,73.1,54.5,25.61,SE,135,3.5,11.2,53,0.00,,,0.00,Rainwise IP-100,2013-06-24 15:26:00,
2013-06-24 09:31:00,73.2,56.0,25.61,SE,135,5.1,9.3,54,0.00,,,0.00,Rainwise IP-100,2013-06-24 15:31:00,
2013-06-24 09:36:00,73.1,55.0,25.61,SSE,157,9.6,13.1,54,0.00,,,0.00,Rainwise IP-100,2013-06-24 15:36:00,
2013-06-24 09:41:00,73.1,55.0,25.61,SSE,157,6.5,14.0,54,0.00,,,0.00,Rainwise IP-100,2013-06-24 15:41:00,
2013-06-24 09:46:00,73.3,56.5,25.62,SSE,157,5.1,9.8,55,0.00,,,0.00,Rainwise IP-100,2013-06-24 15:46:00,
2013-06-24 09:51:00,73.4,56.5,25.61,SSE,157,6.8,12.1,55,0.00,,,0.00,Rainwise IP-100,2013-06-24 15:51:00,
2013-06-24 09:56:00,73.8,56.5,25.60,SSE,157,11.7,11.7,55,0.00,,,0.00,Rainwise IP-100,2013-06-24 15:56:00,
2013-06-24 10:01:00,73.9,57.0,25.60,South,180,6.5,12.6,55,0.00,,,0.00,Rainwise IP-100,2013-06-24 16:01:00,
2013-06-24 10:06:00,74.3,56.5,25.60,South,180,6.8,12.1,54,0.00,,,0.00,Rainwise IP-100,2013-06-24 16:06:00,
2013-06-24 10:11:00,74.8,56.5,25.60,SSE,157,4.0,12.4,53,0.00,,,0.00,Rainwise IP-100,2013-06-24 16:11:00,
2013-06-24 10:16:00,75.5,56.5,25.60,SSE,157,5.8,12.1,52,0.00,,,0.00,Rainwise IP-100,2013-06-24 16:16:00,
2013-06-24 10:21:00,76.0,56.5,25.60,SSE,157,4.9,11.7,51,0.00,,,0.00,Rainwise IP-100,2013-06-24 16:21:00,
2013-06-24 10:26:00,76.4,56.5,25.60,SSE,157,8.4,10.5,50,0.00,,,0.00,Rainwise IP-100,2013-06-24 16:26:00,
2013-06-24 10:31:00,76.8,56.5,25.60,SSE,157,10.3,12.4,49,0.00,,,0.00,Rainwise IP-100,2013-06-24 16:31:00,
2013-06-24 10:36:00,76.8,56.0,25.60,South,180,8.6,12.6,48,0.00,,,0.00,Rainwise IP-100,2013-06-24 16:36:00,
2013-06-24 10:41:00,76.6,55.0,25.60,South,180,6.8,11.9,48,0.00,,,0.00,Rainwise IP-100,2013-06-24 16:41:00,
2013-06-24 10:46:00,76.7,55.0,25.60,SSW,202,7.9,14.0,47,0.00,,,0.00,Rainwise IP-100,2013-06-24 16:46:00,
2013-06-24 10:51:00,77.0,55.0,25.60,SSW,202,6.5,14.5,47,0.00,,,0.00,Rainwise IP-100,2013-06-24 16:51:00,
2013-06-24 10:56:00,77.6,55.0,25.60,WSW,247,7.2,12.6,46,0.00,,,0.00,Rainwise IP-100,2013-06-24 16:56:00,
2013-06-24 11:01:00,78.3,55.0,25.60,SW,225,13.3,14.2,45,0.00,,,0.00,Rainwise IP-100,2013-06-24 17:01:00,
2013-06-24 11:06:00,78.7,55.0,25.60,WSW,247,11.2,15.9,44,0.00,,,0.00,Rainwise IP-100,2013-06-24 17:06:00,
2013-06-24 11:11:00,78.9,54.5,25.60,WSW,247,8.4,17.7,43,0.00,,,0.00,Rainwise IP-100,2013-06-24 17:11:00,
2013-06-24 11:16:00,79.1,54.0,25.60,WSW,247,14.2,18.9,42,0.00,,,0.00,Rainwise IP-100,2013-06-24 17:16:00,
2013-06-24 11:21:00,79.5,54.0,25.59,WSW,247,15.2,17.3,41,0.00,,,0.00,Rainwise IP-100,2013-06-24 17:21:00,
2013-06-24 11:26:00,79.7,53.5,25.59,SSW,202,16.6,18.0,40,0.00,,,0.00,Rainwise IP-100,2013-06-24 17:26:00,
2013-06-24 11:31:00,79.9,53.5,25.59,WSW,247,11.2,19.1,40,0.00,,,0.00,Rainwise IP-100,2013-06-24 17:31:00,
2013-06-24 11:36:00,79.9,52.0,25.59,WSW,247,8.9,18.4,38,0.00,,,0.00,Rainwise IP-100,2013-06-24 17:36:00,
2013-06-24 11:41:00,80.1,52.0,25.59,WSW,247,7.2,18.4,38,0.00,,,0.00,Rainwise IP-100,2013-06-24 17:41:00,
2013-06-24 11:46:00,80.6,52.0,25.59,WSW,247,8.6,15.2,37,0.00,,,0.00,Rainwise IP-100,2013-06-24 17:46:00,
2013-06-24 11:51:00,80.9,52.0,25.59,WSW,247,14.5,17.3,36,0.00,,,0.00,Rainwise IP-100,2013-06-24 17:51:00,
2013-06-24 11:56:00,81.2,52.0,25.59,SW,225,10.0,18.4,36,0.00,,,0.00,Rainwise IP-100,2013-06-24 17:56:00,
2013-06-24 12:01:00,81.6,51.0,25.59,SW,225,18.4,20.8,35,0.00,,,0.00,Rainwise IP-100,2013-06-24 18:01:00,
2013-06-24 12:06:00,81.9,50.5,25.58,SSW,202,13.3,19.6,34,0.00,,,0.00,Rainwise IP-100,2013-06-24 18:06:00,
2013-06-24 12:11:00,81.7,50.5,25.58,WSW,247,8.4,20.1,34,0.00,,,0.00,Rainwise IP-100,2013-06-24 18:11:00,
2013-06-24 12:16:00,81.7,50.0,25.58,WSW,247,9.6,21.7,33,0.00,,,0.00,Rainwise IP-100,2013-06-24 18:16:00,
2013-06-24 12:21:00,82.0,49.0,25.58,WSW,247,12.8,19.8,32,0.00,,,0.00,Rainwise IP-100,2013-06-24 18:21:00,
2013-06-24 12:27:00,81.9,49.0,25.58,WSW,247,10.0,20.3,32,0.00,,,0.00,Rainwise IP-100,2013-06-24 18:27:00,
2013-06-24 12:32:00,81.7,49.0,25.57,WSW,247,6.1,20.5,32,0.00,,,0.00,Rainwise IP-100,2013-06-24 18:32:00,
2013-06-24 12:37:00,81.8,49.0,25.57,WSW,247,11.4,20.1,32,0.00,,,0.00,Rainwise IP-100,2013-06-24 18:37:00,
2013-06-24 12:42:00,82.0,49.0,25.57,WSW,247,8.4,18.9,32,0.00,,,0.00,Rainwise IP-100,2013-06-24 18:42:00,
2013-06-24 12:47:00,82.3,48.0,25.57,WSW,247,19.1,21.0,31,0.00,,,0.00,Rainwise IP-100,2013-06-24 18:47:00,
2013-06-24 12:52:00,82.7,47.5,25.58,WSW,247,16.1,22.9,29,0.00,,,0.00,Rainwise IP-100,2013-06-24 18:52:00,
2013-06-24 12:57:00,82.9,46.0,25.57,WSW,247,14.2,25.4,27,0.00,,,0.00,Rainwise IP-100,2013-06-24 18:57:00,
2013-06-24 13:02:00,83.0,46.0,25.57,WSW,247,13.5,21.5,27,0.00,,,0.00,Rainwise IP-100,2013-06-24 19:02:00,
2013-06-24 13:07:00,83.2,45.0,25.56,SSW,202,11.7,20.5,26,0.00,,,0.00,Rainwise IP-100,2013-06-24 19:07:00,
2013-06-24 13:12:00,83.4,45.0,25.56,WSW,247,16.3,19.8,26,0.00,,,0.00,Rainwise IP-100,2013-06-24 19:12:00,
2013-06-24 13:17:00,83.2,46.0,25.56,WSW,247,11.2,23.1,27,0.00,,,0.00,Rainwise IP-100,2013-06-24 19:17:00,
2013-06-24 13:22:00,83.1,47.0,25.55,WSW,247,10.0,21.9,28,0.00,,,0.00,Rainwise IP-100,2013-06-24 19:22:00,
2013-06-24 13:27:00,83.5,46.0,25.55,SSW,202,10.7,21.0,27,0.00,,,0.00,Rainwise IP-100,2013-06-24 19:27:00,
2013-06-24 13:32:00,84.0,46.0,25.55,WSW,247,10.5,23.3,26,0.00,,,0.00,Rainwise IP-100,2013-06-24 19:32:00,
2013-06-24 13:37:00,84.8,43.0,25.54,SSW,202,9.1,20.1,23,0.00,,,0.00,Rainwise IP-100,2013-06-24 19:37:00,
2013-06-24 13:42:00,85.9,43.0,25.55,WSW,247,14.9,23.8,22,0.00,,,0.00,Rainwise IP-100,2013-06-24 19:42:00,
2013-06-24 13:47:00,86.3,40.0,25.55,WSW,247,22.4,26.1,20,0.00,,,0.00,Rainwise IP-100,2013-06-24 19:47:00,
2013-06-24 13:52:00,86.7,39.0,25.54,WSW,247,11.7,31.9,19,0.00,,,0.00,Rainwise IP-100,2013-06-24 19:52:00,
2013-06-24 13:57:00,87.2,38.0,25.54,WSW,247,16.1,25.9,18,0.00,,,0.00,Rainwise IP-100,2013-06-24 19:57:00,
2013-06-24 14:02:00,88.0,38.0,25.53,WSW,247,17.5,26.1,17,0.00,,,0.00,Rainwise IP-100,2013-06-24 20:02:00,
2013-06-24 14:07:00,88.9,36.0,25.53,WSW,247,17.5,27.0,15,0.00,,,0.00,Rainwise IP-100,2013-06-24 20:07:00,
2013-06-24 14:12:00,88.8,32.0,25.53,WSW,247,24.0,26.8,13,0.00,,,0.00,Rainwise IP-100,2013-06-24 20:12:00,
2013-06-24 14:17:00,88.6,29.0,25.53,SSW,202,7.9,31.2,12,0.00,,,0.00,Rainwise IP-100,2013-06-24 20:17:00,
2013-06-24 14:22:00,88.9,31.0,25.53,WSW,247,9.1,29.4,12,0.00,,,0.00,Rainwise IP-100,2013-06-24 20:22:00,
2013-06-24 14:27:00,89.3,26.0,25.53,SW,225,18.0,24.9,10,0.00,,,0.00,Rainwise IP-100,2013-06-24 20:27:00,
2013-06-24 14:32:00,89.3,26.0,25.53,SSW,202,5.8,27.3,10,0.00,,,0.00,Rainwise IP-100,2013-06-24 20:32:00,
2013-06-24 14:37:00,89.3,26.0,25.53,WSW,247,17.7,28.0,10,0.00,,,0.00,Rainwise IP-100,2013-06-24 20:37:00,
2013-06-24 14:42:00,89.5,24.0,25.52,SSW,202,11.9,28.0,9,0.00,,,0.00,Rainwise IP-100,2013-06-24 20:42:00,
2013-06-24 14:47:00,89.9,24.0,25.53,WSW,247,19.1,19.1,9,0.00,,,0.00,Rainwise IP-100,2013-06-24 20:47:00,
2013-06-24 14:52:00,90.2,21.0,25.53,WSW,247,16.6,27.5,8,0.00,,,0.00,Rainwise IP-100,2013-06-24 20:52:00,
2013-06-24 14:57:00,90.6,18.0,25.52,WSW,247,17.7,23.6,7,0.00,,,0.00,Rainwise IP-100,2013-06-24 20:57:00,
2013-06-24 15:02:00,90.7,18.0,25.52,WSW,247,11.9,26.3,7,0.00,,,0.00,Rainwise IP-100,2013-06-24 21:02:00,
2013-06-24 15:07:00,90.5,18.0,25.52,SSW,202,14.5,30.3,7,0.00,,,0.00,Rainwise IP-100,2013-06-24 21:07:00,
2013-06-24 15:12:00,90.4,18.0,25.52,WSW,247,26.6,30.8,7,0.00,,,0.00,Rainwise IP-100,2013-06-24 21:12:00,
2013-06-24 15:17:00,90.5,18.0,25.52,SSW,202,15.9,28.4,7,0.00,,,0.00,Rainwise IP-100,2013-06-24 21:17:00,
2013-06-24 15:22:00,91.0,18.0,25.52,WSW,247,27.0,27.0,7,0.00,,,0.00,Rainwise IP-100,2013-06-24 21:22:00,
2013-06-24 15:27:00,91.3,18.0,25.52,SSW,202,20.8,29.6,7,0.00,,,0.00,Rainwise IP-100,2013-06-24 21:27:00,
2013-06-24 15:32:00,91.0,23.0,25.52,SSW,202,12.1,26.3,8,0.00,,,0.00,Rainwise IP-100,2013-06-24 21:32:00,
2013-06-24 15:37:00,91.2,18.0,25.51,WSW,247,14.2,29.8,7,0.00,,,0.00,Rainwise IP-100,2013-06-24 21:37:00,
2013-06-24 15:42:00,91.6,18.0,25.51,WSW,247,22.2,28.4,7,0.00,,,0.00,Rainwise IP-100,2013-06-24 21:42:00,
2013-06-24 15:47:00,91.8,21.0,25.51,WSW,247,13.3,26.3,7,0.00,,,0.00,Rainwise IP-100,2013-06-24 21:47:00,
2013-06-24 15:52:00,92.1,21.0,25.51,WSW,247,8.9,32.9,7,0.00,,,0.00,Rainwise IP-100,2013-06-24 21:52:00,
2013-06-24 15:57:00,92.6,21.0,25.50,WSW,247,16.3,24.2,7,0.00,,,0.00,Rainwise IP-100,2013-06-24 21:57:00,
2013-06-24 16:02:00,92.8,21.0,25.50,WSW,247,19.6,27.7,7,0.00,,,0.00,Rainwise IP-100,2013-06-24 22:02:00,
2013-06-24 16:07:00,92.7,21.0,25.50,WSW,247,16.3,27.3,7,0.00,,,0.00,Rainwise IP-100,2013-06-24 22:07:00,
2013-06-24 16:12:00,92.7,23.0,25.50,SSW,202,18.0,24.5,8,0.00,,,0.00,Rainwise IP-100,2013-06-24 22:12:00,
2013-06-24 16:17:00,92.8,23.0,25.50,WSW,247,9.3,18.2,8,0.00,,,0.00,Rainwise IP-100,2013-06-24 22:17:00,
2013-06-24 16:22:00,93.1,24.0,25.50,WSW,247,13.5,21.0,8,0.00,,,0.00,Rainwise IP-100,2013-06-24 22:22:00,
2013-06-24 16:27:00,93.1,24.0,25.50,WSW,247,13.3,21.9,8,0.00,,,0.00,Rainwise IP-100,2013-06-24 22:27:00,
2013-06-24 16:32:00,92.9,23.0,25.50,SSW,202,7.2,25.2,8,0.00,,,0.00,Rainwise IP-100,2013-06-24 22:32:00,
2013-06-24 16:37:00,93.2,24.0,25.50,SW,225,8.6,28.2,8,0.00,,,0.00,Rainwise IP-100,2013-06-24 22:37:00,
2013-06-24 16:42:00,93.5,24.0,25.49,SSW,202,23.3,27.3,8,0.00,,,0.00,Rainwise IP-100,2013-06-24 22:42:00,
2013-06-24 16:47:00,93.6,24.0,25.49,SSW,202,14.7,29.1,8,0.00,,,0.00,Rainwise IP-100,2013-06-24 22:47:00,
2013-06-24 16:52:00,93.3,24.0,25.49,SSW,202,19.1,25.4,8,0.00,,,0.00,Rainwise IP-100,2013-06-24 22:52:00,
2013-06-24 16:57:00,93.0,23.0,25.49,WSW,247,13.8,25.2,8,0.00,,,0.00,Rainwise IP-100,2013-06-24 22:57:00,
2013-06-24 17:02:00,92.4,23.0,25.49,WSW,247,10.5,21.7,8,0.00,,,0.00,Rainwise IP-100,2013-06-24 23:02:00,
2013-06-24 17:07:00,92.4,23.0,25.49,SW,225,15.2,17.3,8,0.00,,,0.00,Rainwise IP-100,2013-06-24 23:07:00,
2013-06-24 17:12:00,92.8,23.0,25.48,SSW,202,13.8,18.9,8,0.00,,,0.00,Rainwise IP-100,2013-06-24 23:12:00,
2013-06-24 17:17:00,93.0,23.0,25.49,SSW,202,9.3,19.6,8,0.00,,,0.00,Rainwise IP-100,2013-06-24 23:17:00,
2013-06-24 17:22:00,93.1,24.0,25.48,SSW,202,4.2,16.6,8,0.00,,,0.00,Rainwise IP-100,2013-06-24 23:22:00,
2013-06-24 17:27:00,93.2,24.0,25.48,SSW,202,11.0,21.5,8,0.00,,,0.00,Rainwise IP-100,2013-06-24 23:27:00,
2013-06-24 17:32:00,93.2,24.0,25.48,SSW,202,12.1,21.7,8,0.00,,,0.00,Rainwise IP-100,2013-06-24 23:32:00,
2013-06-24 17:37:00,93.0,23.0,25.48,SSW,202,8.2,17.0,8,0.00,,,0.00,Rainwise IP-100,2013-06-24 23:37:00,
2013-06-24 17:42:00,92.6,23.0,25.48,South,180,9.8,19.4,8,0.00,,,0.00,Rainwise IP-100,2013-06-24 23:42:00,
2013-06-24 17:47:00,91.9,26.0,25.48,South,180,11.7,16.8,9,0.00,,,0.00,Rainwise IP-100,2013-06-24 23:47:00,
2013-06-24 17:52:00,91.3,28.0,25.48,SSE,157,8.9,17.5,10,0.00,,,0.00,Rainwise IP-100,2013-06-24 23:52:00,
2013-06-24 17:57:00,91.4,28.0,25.48,SSE,157,4.9,16.8,10,0.00,,,0.00,Rainwise IP-100,2013-06-24 23:57:00,
2013-06-24 18:03:00,91.7,28.0,25.48,SSE,157,7.7,17.5,10,0.00,,,0.00,Rainwise IP-100,2013-06-25 00:03:00,
2013-06-24 18:08:00,91.6,29.0,25.48,SSE,157,6.5,18.4,11,0.00,,,0.00,Rainwise IP-100,2013-06-25 00:08:00,
2013-06-24 18:13:00,91.4,29.0,25.48,SE,135,6.8,15.2,11,0.00,,,0.00,Rainwise IP-100,2013-06-25 00:13:00,
2013-06-24 18:18:00,91.4,29.0,25.48,South,180,8.6,12.8,11,0.00,,,0.00,Rainwise IP-100,2013-06-25 00:18:00,
2013-06-24 18:23:00,91.5,28.0,25.48,South,180,10.7,17.0,10,0.00,,,0.00,Rainwise IP-100,2013-06-25 00:23:00,
2013-06-24 18:28:00,91.4,28.0,25.48,SSE,157,7.5,17.0,10,0.00,,,0.00,Rainwise IP-100,2013-06-25 00:28:00,
2013-06-24 18:33:00,91.0,29.0,25.48,SSE,157,9.6,15.4,11,0.00,,,0.00,Rainwise IP-100,2013-06-25 00:33:00,
2013-06-24 18:38:00,90.7,32.0,25.47,SSE,157,10.3,13.1,12,0.00,,,0.00,Rainwise IP-100,2013-06-25 00:38:00,
2013-06-24 18:43:00,90.6,31.0,25.48,South,180,10.0,14.5,12,0.00,,,0.00,Rainwise IP-100,2013-06-25 00:43:00,
2013-06-24 18:48:00,90.5,31.0,25.48,SSE,157,4.4,12.6,12,0.00,,,0.00,Rainwise IP-100,2013-06-25 00:48:00,
2013-06-24 18:53:00,90.0,31.0,25.47,SSE,157,11.0,15.4,12,0.00,,,0.00,Rainwise IP-100,2013-06-25 00:53:00,
2013-06-24 18:58:00,89.7,32.0,25.47,SSE,157,7.7,11.9,13,0.00,,,0.00,Rainwise IP-100,2013-06-25 00:58:00,
2013-06-24 19:03:00,89.5,35.0,25.47,South,180,2.1,12.4,14,0.00,,,0.00,Rainwise IP-100,2013-06-25 01:03:00,
2013-06-24 19:08:00,89.3,33.0,25.47,ENE,67,7.5,13.1,14,0.00,,,0.00,Rainwise IP-100,2013-06-25 01:08:00,
2013-06-24 19:13:00,88.9,36.0,25.47,South,180,3.3,14.7,15,0.00,,,0.00,Rainwise IP-100,2013-06-25 01:13:00,
2013-06-24 19:18:00,88.6,35.0,25.47,SSE,157,7.0,11.7,15,0.00,,,0.00,Rainwise IP-100,2013-06-25 01:18:00,
2013-06-24 19:23:00,88.2,35.0,25.47,SSE,157,7.9,12.1,15,0.00,,,0.00,Rainwise IP-100,2013-06-25 01:23:00,
2013-06-24 19:28:00,87.7,35.0,25.47,SSE,157,1.6,10.0,15,0.00,,,0.00,Rainwise IP-100,2013-06-25 01:28:00,
2013-06-24 19:33:00,87.2,35.0,25.47,ESE,112,4.2,9.8,15,0.00,,,0.00,Rainwise IP-100,2013-06-25 01:33:00,
2013-06-24 19:38:00,86.6,35.0,25.47,SSW,202,3.7,8.6,16,0.00,,,0.00,Rainwise IP-100,2013-06-25 01:38:00,
2013-06-24 19:43:00,86.0,36.0,25.47,SE,135,1.6,8.2,17,0.00,,,0.00,Rainwise IP-100,2013-06-25 01:43:00,
2013-06-24 19:48:00,85.3,36.0,25.47,SSE,157,3.7,7.9,17,0.00,,,0.00,Rainwise IP-100,2013-06-25 01:48:00,
2013-06-24 19:53:00,84.8,37.0,25.46,SE,135,4.0,7.2,18,0.00,,,0.00,Rainwise IP-100,2013-06-25 01:53:00,
2013-06-24 19:58:00,84.2,36.0,25.47,SE,135,1.9,7.0,18,0.00,,,0.00,Rainwise IP-100,2013-06-25 01:58:00,
2013-06-24 20:03:00,83.7,37.0,25.46,SE,135,6.5,7.5,19,0.00,,,0.00,Rainwise IP-100,2013-06-25 02:03:00,
2013-06-24 20:08:00,83.4,37.0,25.46,SE,135,2.6,7.0,19,0.00,,,0.00,Rainwise IP-100,2013-06-25 02:08:00,
2013-06-24 20:13:00,82.8,36.0,25.46,ESE,112,4.9,5.8,19,0.00,,,0.00,Rainwise IP-100,2013-06-25 02:13:00,
2013-06-24 20:18:00,82.1,37.0,25.46,SSE,157,5.4,9.3,20,0.00,,,0.00,Rainwise IP-100,2013-06-25 02:18:00,
2013-06-24 20:23:00,81.6,37.0,25.47,ESE,112,4.9,6.5,20,0.00,,,0.00,Rainwise IP-100,2013-06-25 02:23:00,
2013-06-24 20:28:00,81.2,38.0,25.47,SSE,157,4.0,8.4,21,0.00,,,0.00,Rainwise IP-100,2013-06-25 02:28:00,
2013-06-24 20:33:00,80.9,39.0,25.47,SSE,157,5.6,8.2,22,0.00,,,0.00,Rainwise IP-100,2013-06-25 02:33:00,
2013-06-24 20:38:00,80.8,38.0,25.47,ESE,112,2.6,9.1,22,0.00,,,0.00,Rainwise IP-100,2013-06-25 02:38:00,
2013-06-24 20:43:00,80.7,39.0,25.47,ESE,112,6.8,8.4,23,0.00,,,0.00,Rainwise IP-100,2013-06-25 02:43:00,
2013-06-24 20:48:00,80.3,41.0,25.47,SE,135,3.7,7.2,25,0.00,,,0.00,Rainwise IP-100,2013-06-25 02:48:00,
2013-06-24 20:53:00,79.9,42.0,25.47,ESE,112,6.8,8.9,26,0.00,,,0.00,Rainwise IP-100,2013-06-25 02:53:00,
2013-06-24 20:58:00,79.4,42.0,25.47,SE,135,5.8,7.2,27,0.00,,,0.00,Rainwise IP-100,2013-06-25 02:58:00,
2013-06-24 21:03:00,79.0,43.0,25.47,ESE,112,7.0,7.7,28,0.00,,,0.00,Rainwise IP-100,2013-06-25 03:03:00,
2013-06-24 21:08:00,78.8,45.0,25.47,ESE,112,5.8,10.0,30,0.00,,,0.00,Rainwise IP-100,2013-06-25 03:08:00,
2013-06-24 21:13:00,78.9,46.0,25.47,SE,135,6.1,11.0,31,0.00,,,0.00,Rainwise IP-100,2013-06-25 03:13:00,
2013-06-24 21:18:00,79.0,47.5,25.47,SE,135,4.2,10.5,33,0.00,,,0.00,Rainwise IP-100,2013-06-25 03:18:00,
2013-06-24 21:23:00,79.2,48.0,25.47,ESE,112,3.3,11.2,34,0.00,,,0.00,Rainwise IP-100,2013-06-25 03:23:00,
2013-06-24 21:28:00,79.1,49.0,25.48,ESE,112,1.9,7.5,35,0.00,,,0.00,Rainwise IP-100,2013-06-25 03:28:00,
2013-06-24 21:33:00,78.9,50.0,25.48,ESE,112,3.3,7.7,36,0.00,,,0.00,Rainwise IP-100,2013-06-25 03:33:00,
2013-06-24 21:38:00,78.8,50.5,25.48,SSE,157,5.8,9.8,37,0.00,,,0.00,Rainwise IP-100,2013-06-25 03:38:00,
2013-06-24 21:43:00,78.6,50.5,25.49,SE,135,4.9,11.2,37,0.00,,,0.00,Rainwise IP-100,2013-06-25 03:43:00,
2013-06-24 21:48:00,78.5,51.0,25.49,ESE,112,6.5,8.4,38,0.00,,,0.00,Rainwise IP-100,2013-06-25 03:48:00,
2013-06-24 21:53:00,78.4,51.0,25.49,SE,135,4.2,11.2,39,0.00,,,0.00,Rainwise IP-100,2013-06-25 03:53:00,
2013-06-24 21:58:00,78.2,51.0,25.48,ESE,112,1.9,7.5,39,0.00,,,0.00,Rainwise IP-100,2013-06-25 03:58:00,
2013-06-24 22:01:00,78.0,51.0,25.49,ESE,112,4.7,7.5,39,0.00,,,0.00,Rainwise IP-100,2013-06-25 04:01:00,
2013-06-24 22:06:00,77.4,51.0,25.49,SE,135,4.4,6.3,40,0.00,,,0.00,Rainwise IP-100,2013-06-25 04:06:00,
2013-06-24 22:11:00,77.1,52.0,25.49,SSE,157,3.3,8.4,41,0.00,,,0.00,Rainwise IP-100,2013-06-25 04:11:00,
2013-06-24 22:15:00,77.0,52.0,25.49,ESE,112,4.7,7.2,41,0.00,,,0.00,Rainwise IP-100,2013-06-25 04:15:00,
2013-06-24 22:20:00,76.8,52.0,25.49,SE,135,1.9,6.1,42,0.00,,,0.00,Rainwise IP-100,2013-06-25 04:20:00,
2013-06-24 22:25:00,76.4,53.0,25.49,ESE,112,3.5,8.4,43,0.00,,,0.00,Rainwise IP-100,2013-06-25 04:25:00,
2013-06-24 22:30:00,76.2,52.0,25.49,SE,135,4.7,9.1,43,0.00,,,0.00,Rainwise IP-100,2013-06-25 04:30:00,
2013-06-24 22:35:00,75.9,53.0,25.49,SSE,157,3.3,7.5,44,0.00,,,0.00,Rainwise IP-100,2013-06-25 04:35:00,
2013-06-24 22:40:00,75.5,53.0,25.49,SSE,157,2.3,5.8,45,0.00,,,0.00,Rainwise IP-100,2013-06-25 04:40:00,
2013-06-24 22:45:00,75.0,53.0,25.49,SSE,157,2.1,5.6,46,0.00,,,0.00,Rainwise IP-100,2013-06-25 04:45:00,
2013-06-24 22:50:00,74.6,53.0,25.50,South,180,4.9,5.4,46,0.00,,,0.00,Rainwise IP-100,2013-06-25 04:50:00,
2013-06-24 22:55:00,74.3,53.0,25.50,SSE,157,3.5,5.6,47,0.00,,,0.00,Rainwise IP-100,2013-06-25 04:55:00,
2013-06-24 22:59:00,74.1,53.5,25.50,SSE,157,4.2,5.4,48,0.00,,,0.00,Rainwise IP-100,2013-06-25 04:59:00,
2013-06-24 23:04:00,73.7,53.5,25.50,SSE,157,2.6,7.0,49,0.00,,,0.00,Rainwise IP-100,2013-06-25 05:04:00,
2013-06-24 23:09:00,73.4,54.0,25.50,South,180,4.0,7.2,50,0.00,,,0.00,Rainwise IP-100,2013-06-25 05:09:00,
2013-06-24 23:14:00,73.3,54.0,25.50,SSE,157,5.8,6.8,50,0.00,,,0.00,Rainwise IP-100,2013-06-25 05:14:00,
2013-06-24 23:15:00,73.3,54.0,25.50,SSE,157,4.0,6.8,50,0.00,,,0.00,Rainwise IP-100,2013-06-25 05:15:00,
2013-06-24 23:20:00,72.9,54.0,25.50,South,180,5.1,6.5,51,0.00,,,0.00,Rainwise IP-100,2013-06-25 05:20:00,
2013-06-24 23:25:00,72.4,53.5,25.50,SSW,202,2.3,6.5,51,0.00,,,0.00,Rainwise IP-100,2013-06-25 05:25:00,
2013-06-24 23:30:00,71.9,53.0,25.50,SSW,202,3.0,4.9,51,0.00,,,0.00,Rainwise IP-100,2013-06-25 05:30:00,
2013-06-24 23:35:00,71.5,53.5,25.50,SSW,202,4.7,6.1,52,0.00,,,0.00,Rainwise IP-100,2013-06-25 05:35:00,
2013-06-24 23:40:00,71.3,53.5,25.50,SSW,202,3.0,6.1,53,0.00,,,0.00,Rainwise IP-100,2013-06-25 05:40:00,
2013-06-24 23:45:00,71.2,53.5,25.50,SSW,202,3.5,5.6,53,0.00,,,0.00,Rainwise IP-100,2013-06-25 05:45:00,
2013-06-24 23:50:00,71.0,53.0,25.50,SSW,202,4.9,5.1,53,0.00,,,0.00,Rainwise IP-100,2013-06-25 05:50:00,
2013-06-24 23:55:00,70.8,53.0,25.50,SSW,202,7.0,7.9,53,0.00,,,0.00,Rainwise IP-100,2013-06-25 05:55:00,